Vertical_Velocity
-2 -3 -1 0 -0 1 -1 0 -3 -5 0 -5 -4 -4 4 1 3 -1 -11 -1 -1 2 4 4 6 6 9 -1 5 7 -3 -1 -5 2 -2 -0 -2 -0 2 -4 -2 1 -1 -3 0
-2 -1 -4 0 0 3 1 -4 -4 -1 -1 1 -5 -4 -3 2 5 -2 -4 -1 -1 1 3 0 2 2 0 -1 -2 -1 -0 -4 -2 -0 -1 2 -3 1 -2 1 -1 1 2 -1 2
1 -1 0 -2 -2 0 3 -1 -2 -0 1 0 0 6 -0 -1 -2 -15 1 0 3 -2 -1 3 11 -1 1 0 2 0 -2 0 0 0 2 0 -1 1 -2 0 -0 -3 2 0 2
1 -0 -0 -2 -3 -4 1 2 -1 -2 -3 0 -1 -5 4 0 3 4 0 3 0 2 -2 4 10 4 1 -1 0 -6 1 -1 0 1 -1 -1 -0 -1 -1 2 1 2 -2 -3 2
0 -1 -1 1 -3 -3 -3 1 1 0 1 -2 -1 -0 -2 -2 -3 3 0 5 1 1 -4 -5 4 -0 -0 -1 5 -3 0 -0 2 1 -1 -0 1 -2 1 -0 -1 2 -1 -2 0
-0 -1 -1 -1 -0 -0 -3 0 2 -1 1 -1 1 2 1 0 7 4 2 -1 6 -4 -1 3 -8 -0 -4 0 -0 1 -1 1 2 1 -1 -4 0 1 1 1 0 -1 1 1 -1
0 -0 -0 1 -0 0 -3 -3 1 -0 -1 2 -0 1 -1 -18 4 -5 -2 -1 0 3 -5 -1 0 16 8 1 2 -1 -3 1 1 -0 1 -6 1 -0 -2 1 -0 -1 -0 0 -0
-2 0 -1 -2 -1 -0 -2 -3 -1 2 1 -1 0 3 -10 -2 -4 -3 0 -4 1 3 -1 7 5 0 5 6 0 -2 -3 -1 1 1 0 4 -3 2 3 -1 0 2 -1 1 2
-1 0 -1 3 -2 1 -1 -4 -6 -3 1 -0 -2 -1 -8 -1 -2 -2 -4 -1 -3 -2 2 8 9 -1 6 -3 -1 1 -1 0 2 -2 -1 1 -2 3 -0 2 1 0 1 0 -1
2 -1 1 -1 2 -1 -0 0 -7 -3 -3 -0 -1 3 -2 1 0 -2 4 2 0 2 3 4 5 -1 1 -1 -5 -2 1 1 -2 -2 2 2 -1 2 -1 1 -1 -0 -1 -1 1
-3 -1 -3 -4 1 2 -2 -3 1 -2 7 -11 4 1 1 -2 0 2 1 5 3 5 -1 0 -1 -2 -3 -2 -2 -1 1 -1 -1 1 -4 -3 -0 -2 -0 4 2 0 -1 -1 -1
-3 -3 -2 0 -5 -2 0 -2 -0 1 -7 -2 -6 4 2 -1 1 -1 4 -2 4 -1 1 1 -2 -3 -0 1 1 1 0 1 -1 2 1 0 -3 -1 -0 -6 -7 -5 -3 -1 2
3 -1 -3 -2 0 -1 -2 -2 1 -1 3 -10 -4 -2 -0 -1 -2 -6 1 3 -2 2 -0 -3 -8 2 2 1 6 -1 1 -0 -4 0 -1 1 -1 3 -1 1 3 2 1 -1 -5
2 3 -1 -2 1 -1 1 -1 1 0 2 -4 0 -1 8 2 -4 -3 -5 -6 3 -7 -0 -3 -7 -0 3 -0 2 5 -2 -1 -0 -1 -5 -4 -6 -0 0 1 2 1 -1 -2 -4
0 1 -2 -1 -2 -1 -1 0 -0 -3 -3 1 2 3 4 -6 -0 1 -2 16 -1 -2 2 -15 1 2 5 -18 2 -13 0 -3 -1 0 -1 2 1 -10 -1 2 -1 -2 2 4 2
-1 -1 2 -0 -1 -3 -1 -1 1 2 -9 1 -0 -2 1 1 -1 2 1 8 2 2 -1 -6 -3 2 -10 -2 -1 -2 -1 -2 0 -2 2 -4 -1 -4 -3 -11 -1 2 -1 -2 -2
-2 -4 1 -1 -2 0 2 1 -10 -4 -5 2 -1 1 0 -1 1 1 -0 3 -3 1 -0 -2 -4 -1 -0 3 3 0 0 1 4 5 -5 -0 5 -22 -3 -3 -5 -6 1 2 0
3 -1 2 0 -0 1 0 -4 1 -5 1 1 -0 -0 1 -0 -3 0 1 0 1 3 1 1 0 0 -5 -8 -11 -5 -7 -6 -5 -2 -4 1 -5 -18 0 0 0 2 3 6 5
-2 -3 -2 3 -0 0 -1 -0 -6 -0 1 -1 -4 2 -1 0 -2 -3 -0 -1 -2 -3 -0 2 -5 -3 2 -1 -3 -4 5 -19 3 -1 1 -5 -6 -4 -1 -0 2 3 4 5 2
-1 -1 -1 1 2 1 -4 -3 1 -0 -1 -2 -1 2 0 0 -1 -1 0 -4 -2 -1 1 -3 2 -2 -6 15 3 -6 -7 8 4 2 1 -1 -1 -7 -1 -0 2 5 2 5 6
-0 0 1 1 2 2 -2 -4 -0 2 -3 0 0 -1 -0 -0 -2 -1 -4 -5 0 -1 -1 1 6 -6 4 0 -10 10 5 4 -4 -1 -4 -1 -10 -4 -3 -4 -3 1 2 1 2
1 -2 1 2 -1 -0 -0 -3 -2 -0 1 -1 2 1 -0 -0 0 1 -3 -3 0 -1 -0 -1 2 -0 -5 -2 1 -3 -6 -4 1 -5 -3 -0 -18 0 -0 -1 -4 2 2 4 -0
0 0 3 2 -1 -1 -4 -1 -1 1 -0 -0 -0 0 -0 0 -3 0 -0 1 -0 -0 -0 1 -2 -1 -5 1 -0 0 -2 -1 1 -0 -7 1 -15 -0 1 2 6 -4 2 2 1
1 -3 3 4 3 0 0 -2 -0 1 -1 0 -0 0 0 0 -1 -2 -0 1 1 -1 2 0 0 -1 -1 -3 1 -0 1 0 6 5 -8 -13 -3 -2 2 0 5 6 3 1 0
3 -1 2 -2 -2 -0 -0 1 -0 -2 0 1 -1 1 2 1 -1 -1 -1 -2 -1 0 0 1 1 1 -2 -1 2 0 0 -1 3 -4 6 -15 -1 -4 -5 -4 -2 -1 8 1 3
1 -0 -3 -1 0 0 -1 -3 1 -2 -0 -2 0 -0 -0 0 -1 -2 0 -1 -3 -2 0 1 -4 1 -3 -1 2 1 -1 0 -0 -2 1 2 -3 -0 3 2 5 -0 0 2 1
0 2 -0 -3 -1 0 -1 -0 2 -0 -2 1 1 0 -0 1 3 -0 -1 -1 -2 -2 -0 -1 -1 -3 -5 0 -0 3 -9 -2 -1 -0 -1 3 -8 -0 6 2 -3 2 -3 -5 -1
Height
1493 1491 1490 1488 1485 1483 1482 1482 1481 1481 1479 1479 1479 1479 1479 1479 1480 1480 1480 1482 1484 1486 1489 1491 1494 1496 1497 1500 1502 1506 1514 1516 1511 1509 1508 1508 1512 1521 1525 1524 1527 1531 1534 1542 1545
1492 1490 1488 1487 1485 1482 1479 1479 1478 1477 1477 1478 1477 1478 1478 1479 1479 1477 1477 1479 1482 1484 1488 1488 1492 1494 1495 1497 1501 1502 1509 1510 1514 1516 1510 1511 1510 1519 1525 1528 1533 1533 1535 1541 1545
1492 1488 1486 1484 1482 1480 1478 1476 1476 1475 1476 1476 1476 1476 1476 1477 1479 1474 1475 1477 1479 1484 1488 1490 1495 1495 1496 1497 1498 1501 1505 1507 1514 1514 1507 1511 1514 1519 1524 1530 1533 1533 1536 1542 1544
1491 1487 1483 1480 1479 1478 1477 1474 1473 1474 1475 1475 1475 1475 1476 1477 1479 1475 1476 1476 1478 1481 1485 1489 1493 1494 1496 1497 1496 1503 1504 1506 1510 1510 1509 1514 1516 1522 1524 1531 1532 1531 1535 1541 1544
1489 1486 1483 1479 1477 1475 1473 1473 1472 1471 1473 1475 1475 1476 1476 1477 1476 1475 1475 1475 1476 1479 1481 1486 1492 1494 1496 1494 1496 1500 1504 1508 1510 1508 1511 1516 1520 1520 1528 1529 1532 1532 1535 1539 1543
1487 1484 1481 1478 1476 1475 1473 1472 1471 1471 1472 1474 1474 1475 1476 1477 1475 1474 1474 1473 1473 1476 1479 1483 1486 1491 1492 1493 1495 1496 1502 1508 1511 1511 1512 1518 1523 1521 1531 1529 1531 1533 1536 1538 1541
1486 1483 1480 1477 1475 1473 1472 1471 1470 1471 1471 1472 1473 1475 1476 1474 1473 1473 1473 1472 1472 1474 1478 1482 1486 1491 1490 1494 1499 1502 1509 1511 1511 1511 1515 1519 1527 1522 1524 1528 1529 1532 1536 1538 1540
1485 1482 1479 1476 1474 1472 1472 1471 1471 1471 1471 1472 1473 1474 1473 1471 1472 1472 1473 1472 1473 1476 1480 1483 1486 1488 1489 1493 1498 1501 1506 1510 1509 1512 1517 1520 1511 1522 1526 1527 1530 1532 1534 1537 1539
1485 1482 1479 1475 1472 1472 1471 1471 1471 1472 1472 1472 1474 1475 1471 1470 1470 1471 1472 1472 1472 1476 1480 1482 1485 1486 1488 1491 1500 1500 1508 1505 1511 1512 1515 1516 1507 1519 1527 1528 1529 1530 1533 1534 1537
1486 1482 1478 1475 1472 1472 1472 1472 1473 1474 1475 1474 1475 1478 1472 1470 1468 1469 1471 1473 1474 1476 1480 1482 1482 1484 1485 1489 1498 1501 1501 1501 1507 1507 1508 1513 1511 1520 1524 1527 1528 1529 1530 1534 1534
1485 1482 1478 1475 1474 1474 1474 1474 1477 1477 1474 1473 1472 1470 1470 1470 1469 1468 1470 1474 1476 1478 1480 1478 1483 1485 1486 1486 1485 1488 1491 1492 1490 1493 1500 1504 1509 1518 1521 1523 1524 1524 1530 1531 1532
1485 1481 1478 1476 1475 1476 1475 1476 1477 1479 1474 1467 1466 1469 1469 1469 1469 1469 1469 1472 1475 1476 1478 1481 1481 1481 1482 1484 1486 1487 1491 1495 1498 1495 1503 1507 1507 1512 1516 1511 1512 1516 1523 1527 1530
1486 1482 1480 1479 1477 1477 1478 1479 1478 1478 1477 1466 1463 1465 1468 1470 1469 1466 1468 1469 1469 1476 1477 1480 1475 1477 1478 1480 1484 1484 1487 1495 1494 1502 1505 1507 1508 1511 1510 1510 1512 1515 1519 1520 1521
1487 1484 1481 1480 1481 1479 1478 1477 1478 1478 1476 1466 1464 1465 1467 1467 1466 1464 1465 1469 1469 1470 1473 1474 1470 1472 1475 1476 1479 1482 1479 1481 1496 1501 1509 1499 1505 1504 1501 1507 1510 1510 1509 1507 1511
1487 1485 1482 1477 1479 1479 1479 1477 1477 1477 1485 1466 1466 1466 1464 1468 1464 1462 1464 1467 1466 1466 1469 1470 1466 1468 1468 1467 1470 1472 1471 1478 1488 1491 1489 1499 1505 1488 1493 1502 1497 1493 1494 1500 1504
1485 1484 1481 1479 1477 1477 1476 1477 1476 1477 1479 1463 1463 1465 1466 1465 1463 1462 1463 1465 1466 1465 1462 1463 1458 1458 1459 1459 1462 1467 1473 1479 1482 1487 1493 1489 1494 1482 1490 1474 1471 1482 1486 1490 1498
1483 1481 1479 1478 1477 1476 1476 1477 1482 1479 1454 1460 1459 1460 1462 1462 1460 1460 1462 1464 1467 1470 1470 1459 1453 1452 1452 1457 1457 1461 1472 1483 1485 1485 1475 1474 1488 1450 1457 1455 1454 1459 1472 1484 1492
1481 1479 1478 1476 1475 1475 1476 1478 1481 1458 1456 1456 1455 1455 1457 1456 1457 1457 1460 1462 1462 1462 1466 1462 1458 1446 1444 1446 1450 1452 1456 1469 1468 1466 1469 1467 1463 1456 1453 1451 1450 1454 1466 1477 1484
1478 1477 1477 1475 1474 1475 1478 1482 1472 1462 1460 1459 1457 1458 1455 1450 1453 1456 1458 1461 1457 1456 1461 1455 1449 1436 1434 1436 1442 1448 1452 1449 1458 1453 1462 1461 1448 1452 1454 1453 1452 1456 1465 1473 1480
1476 1475 1475 1475 1475 1475 1477 1475 1465 1461 1461 1460 1461 1454 1457 1456 1459 1461 1462 1456 1454 1452 1452 1451 1444 1432 1427 1430 1433 1434 1440 1455 1453 1456 1453 1452 1449 1440 1451 1451 1453 1458 1465 1473 1480
1474 1473 1472 1473 1474 1475 1478 1473 1464 1464 1463 1463 1462 1461 1458 1457 1459 1462 1456 1454 1453 1454 1453 1453 1446 1434 1428 1427 1429 1431 1435 1434 1436 1442 1437 1442 1428 1428 1427 1436 1443 1455 1463 1469 1477
1474 1474 1471 1472 1475 1471 1469 1463 1462 1461 1462 1463 1461 1459 1459 1457 1461 1457 1454 1450 1453 1453 1456 1453 1452 1441 1434 1428 1428 1422 1422 1427 1426 1425 1424 1427 1419 1434 1434 1436 1443 1455 1464 1470 1477
1474 1471 1469 1470 1472 1470 1464 1459 1457 1458 1459 1460 1460 1458 1457 1456 1461 1458 1453 1454 1453 1454 1452 1456 1449 1441 1428 1434 1433 1435 1430 1431 1425 1424 1415 1427 1410 1437 1435 1439 1446 1451 1463 1470 1476
1474 1473 1469 1467 1465 1465 1465 1461 1458 1456 1457 1458 1459 1459 1459 1457 1455 1456 1451 1453 1453 1454 1453 1454 1452 1448 1442 1430 1435 1431 1432 1434 1434 1417 1407 1405 1427 1444 1439 1441 1447 1453 1458 1468 1475
1475 1472 1470 1469 1465 1465 1464 1462 1461 1461 1459 1458 1459 1459 1461 1465 1459 1460 1455 1453 1454 1454 1454 1455 1449 1450 1440 1435 1433 1432 1427 1424 1426 1424 1414 1399 1409 1428 1428 1435 1444 1452 1459 1464 1473
1477 1477 1473 1471 1467 1466 1464 1463 1460 1458 1459 1459 1460 1461 1461 1462 1460 1462 1461 1461 1457 1455 1453 1453 1455 1447 1448 1434 1429 1426 1424 1423 1421 1419 1417 1414 1413 1421 1427 1436 1444 1451 1458 1463 1470
1479 1479 1477 1471 1468 1468 1467 1464 1464 1464 1461 1459 1462 1461 1460 1460 1459 1458 1457 1456 1455 1456 1458 1458 1455 1469 1473 1442 1434 1429 1416 1412 1411 1412 1408 1406 1406 1420 1428 1431 1433 1439 1451 1458 1467